Regional Weather Roundup
Issued by NWS

Home | Current Version | Previous Version | Graphics & Text | Print | Product List | Glossary On
Versions: 1 2 3 4 5 6 7 8 9 10 11 12 13 14 15 16 17 18 19 20 21 22 23 24 25 26 27 28 29 30 31 32 33 34 35 36 37 38 39 40 41 42 43 44 45 46 47 48 49 50
000
ASUS43 KMKX 310721
RWRWI

WISCONSIN REGIONAL WEATHER ROUNDUP
NATIONAL WEATHER SERVICE MILWAUKEE/SULLIVAN WI
200 AM CDT SUN AUG 31 2014

NOTE: "FAIR" INDICATES FEW OR NO CLOUDS BELOW 12,000 FEET WITH NO
SIGNIFICANT WEATHER AND/OR OBSTRUCTIONS TO VISIBILITY.

WIZ001-002-006>008-014>016-023>028-310800-
NORTHWEST WISCONSIN

CITY           SKY/WX    TMP DP  RH WIND       PRES   REMARKS
SUPERIOR ARPT  PTCLDY    55  55  99 CALM      29.91R FOG
ASHLAND        FOG       51  50  96 CALM      29.92S VSB 1/4
HAYWARD        PTCLDY    59  56  89 SW5       29.93R
SIREN          CLOUDY    59  58  95 CALM      29.93R
RICE LAKE      PTCLDY    57  55  94 CALM      29.93S
LADYSMITH      CLOUDY    60  58  92 SE3       29.94S
EAU CLAIRE     FOG       58  58 100 W5        29.92R VSB 3/4
MENOMONIE      FOG       59  58  98 CALM      29.91R VSB<1/4
NEW RICHMOND   PTCLDY    60  60  99 CALM      29.92R
OSCEOLA        CLEAR     61  61 100 E3        29.94R
$$

WIZ003>005-009-010-017-018-310800-
NORTH CENTRAL WISCONSIN

CITY           SKY/WX    TMP DP  RH WIND       PRES   REMARKS
WOODRUFF       PTCLDY    57  55  95 CALM      29.92F
RHINELANDER    CLEAR     53  53 100 CALM      29.93F FOG
EAGLE RIVER    FOG       50  50 100 CALM      29.92F VSB 1/4
LAND O LAKES   CLOUDY    56  55  97 CALM      29.94S
PHILLIPS       PTCLDY    54  54 100 CALM      29.92S FOG
TOMAHAWK         N/A     50  49  96 CALM      29.93F FOG
MEDFORD        CLEAR     53  52  99 CALM      29.92F FOG
MERRILL        CLEAR     54  54 100 CALM      29.93S
$$

WIZ029-030-035-036-043>047-310800-
CENTRAL WISCONSIN

CITY           SKY/WX    TMP DP  RH WIND       PRES   REMARKS
WAUSAU         CLOUDY    61  56  83 N3        29.91S
MOSINEE        CLOUDY    61  59  94 NE6       29.93S
MARSHFIELD     CLOUDY    63  60  90 E3        29.91F
STEVENS POINT  PTCLDY    58  57  97 CALM      29.92S
WAUPACA        MOCLDY    64  63  95 CALM      29.92R
WAUTOMA        MOCLDY    65  64  96 CALM      29.92S
WISC RAPIDS    CLOUDY    61  60  97 CALM      29.92S
CAMP DOUGLAS   CLEAR     61  61 100 SE1       29.91S
$$

WIZ011>013-019>022-031-037>040-048>050-310800-
NORTHEAST WISCONSIN

CITY           SKY/WX    TMP DP  RH WIND       PRES   REMARKS
ANTIGO         CLEAR     54  54 100 CALM      29.93S
STURGEON BAY   CLOUDY    63  57  82 W3        29.91R
GREEN BAY      CLOUDY    64  61  90 N5        29.91R
MANITOWOC      CLOUDY    65  62  90 CALM      29.91S
APPLETON       CLOUDY    63  61  94 CALM      29.92S
CLINTONVILLE   CLOUDY    63  59  88 N3        29.91S
OSHKOSH        MOCLDY    65  63  93 CALM      29.91R
$$

WIZ032>034-041-042-053>061-310800-
SOUTHWEST WISCONSIN

CITY           SKY/WX    TMP DP  RH WIND       PRES   REMARKS
LA CROSSE      PTCLDY    64  61  90 CALM      29.89S
SPARTA         CLEAR     59  58  96 CALM      29.91S
VIROQUA        FAIR      64  64 100 SE3       29.91S
BOSCOBEL       FOG       67  65  93 CALM      29.90S VSB<1/4
PRAIRIE DU CHI CLEAR     65  63  94 CALM      29.89S FOG
PLATTEVILLE    FAIR      64  63  96 CALM      29.92S
$$

WIZ056-057-062-063-064-067-068-310800-
SOUTH CENTRAL WISCONSIN

CITY           SKY/WX    TMP DP  RH WIND       PRES   REMARKS
BARABOO/DELLS  PTCLDY    64  63  94 CALM      29.91S
LONE ROCK      HAZE      68  63  84 CALM      29.90S VSB 3/4
WATERTOWN      PTCLDY    63  63 100 CALM      29.90S FOG
MADISON        PTCLDY    66  64  93 CALM      29.91S FOG
MIDDLETON      CLOUDY    64  64  99 CALM      29.91F VSB 1/4
MONROE         CLEAR     64  63  94 SW6       29.92S
JANESVILLE     PTCLDY    68  64  88 CALM      29.91S
$$

WIZ051-052-058>065-066-070>072-310800-
SOUTHEAST WISCONSIN

CITY           SKY/WX    TMP DP  RH WIND       PRES   REMARKS
MILWAUKEE      PTCLDY    69  65  86 CALM      29.90S
WAUKESHA       CLEAR     63  63 100 CALM      29.92F FOG
MILWAUKEE/TIMM CLEAR     64  63  94 CALM      29.91S
RACINE         PTCLDY    69  65  86 W3        29.91F
BURLINGTON     PTCLDY    61  61  99 SW5       29.91F FOG
KENOSHA        PTCLDY    66  65  96 W6        29.90F
FOND DU LAC    MOCLDY    65  63  93 CALM      29.91S
SHEBOYGAN      CLOUDY    64  63  96 CALM      29.91S
WEST BEND      PTCLDY    63  61  94 CALM      29.91S FOG
JUNEAU         CLEAR     64  64  97 CALM      29.92S
$$

LSZ147-162-310800-
LAKE SUPERIOR

STATION/POSITION TIME  TEMP    WIND        PRES    WAVE
                       AIR SEA DIR/SP/G            HT/PER
                 (UTC) (F)     (DEG/KT/KT) (MB)    (FT/S)
W MID LAKE BUOY  0650   58 57  270/  2/  4 1012.7F   0
DEVILS ISLAND    0700   60      20/  1/  1 1012.9S
PORT WING        0600   57     190/  4/  6 1012.9F
SAXON HARBOR     0600   56        CALM     1013.2S
$$

LMZ867-665-643>646-310800-
LAKE MICHIGAN

STATION/POSITION TIME  TEMP    WIND        PRES    WAVE
                       AIR SEA DIR/SP/G            HT/PER
                 (UTC) (F)     (DEG/KT/KT) (MB)    (FT/S)
N MID LAKE BUOY  0650   62 65  320/ 12/ 14 1010.9F   2/ 4
NORTHPORT PIER   0600   64     330/ 12/ 15 1011.5S
KEWAUNEE LAKESHO 0700   64     330/  1/  2 1011.8R
SHEBOYGAN LAKESH 0700   65 53  360/  3/  3 1012.8F
ATWATER BUOY     0700   64     300/  2/  4 1013.6S
MILWAUKEE LAKESH 0700   71     290/  3/  4   N/A
S MID LAKE BUOY  0650   71 69  220/  8/  8 1012.3S   1/ 4
KENOSHA   LAKESH 0700   71     260/  6/  9 1012.2S
$$

TC  - TEMPERATURE IN CELSIUS
VSB - VISIBILITY IN STATUTE MILES
WCI - WIND CHILL INDEX
HX  - HEAT INDEX




USA.gov is the U.S. government's official web portal to all federal, state and local government web resources and services.